Weslaco, TX

1:40 PM CDT on September 20, 2017 (GMT -0500)
Weslaco

Weather History for KT65 - April, 2014

Change the Weather History Date:

Tuesday, April 29, 2014

  Actual Average (KMFE) Record (KMFE)
Temperature  
Mean Temperature 84 °F -  
Max Temperature 99 °F 87 °F 102 °F (2014)
Min Temperature 70 °F 67 °F 53 °F (2008)
Cooling Degree Days 20    
Growing Degree Days 34 (Base 50)    
Moisture  
Dew Point 64 °F    
Average Humidity 61    
Maximum Humidity 93    
Minimum Humidity 22    
Precipitation  
Precipitation 0.00 in - - ()
Sea Level Pressure  
Sea Level Pressure 29.68 in    
Wind  
Wind Speed 7 mph (East)    
Max Wind Speed 21 mph    
Max Gust Speed 29 mph    
Visibility 7 miles    
Events Rain    
Averages and records for this station are not official NWS values.
T = Trace of Precipitation, MM = Missing Value Source: NWS Daily Summary

Daily Weather History Graph

Daily Weather History Graph

Search for Another Location

Airport or City:

Trip Planner

Search our weather history database for the weather conditions in past years. The results will help you decide how hot, cold, wet, or windy it might be!

Date:

Astronomy

Apr. 29, 2014 Rise Set
Actual Time 6:56 AM CDT 8:02 PM CDT
Civil Twilight 6:31 AM CDT 8:26 PM CDT
Nautical Twilight 6:03 AM CDT 8:55 PM CDT
Astronomical Twilight 5:33 AM CDT 9:25 PM CDT
Moon 7:14 AM CDT (4/29) 8:42 PM CDT (4/29)
Length of Visible Light 13h 55m
Length of Day
13h 06m
New Moon, 0% of the Moon is Illuminated
Apr 29
New Moon
May 6
First Quarter
May 14
Full
May 21
Last Quarter
May 28
New

Hourly Weather History & Observations

Time (CDT) Temp. Heat Index Dew Point Humidity Pressure Visibility Wind Dir Wind Speed Gust Speed Precip Events Conditions
12:15 AM 72.5 °F - 64.9 °F 77% 29.65 in 7.0 mi South 3.5 mph - N/A   Clear
12:35 AM 72.9 °F - 65.7 °F 78% 29.65 in 7.0 mi SE 3.5 mph - N/A   Clear
12:55 AM 72.0 °F - 66.2 °F 82% 29.64 in 5.0 mi Calm Calm - N/A   Haze
1:15 AM 70.9 °F - 66.0 °F 85% 29.64 in 7.0 mi Calm Calm - N/A   Clear
1:35 AM 70.9 °F - 66.7 °F 87% 29.63 in 5.0 mi South 3.5 mph - N/A   Clear
1:55 AM 70.9 °F - 67.1 °F 88% 29.63 in 5.0 mi SSE 4.6 mph - N/A   Scattered Clouds
2:15 AM 72.1 °F - 68.9 °F 89% 29.62 in 3.0 mi SE 5.8 mph - N/A   Mostly Cloudy
2:35 AM 72.1 °F - 68.9 °F 89% 29.62 in 1.5 mi SE 3.5 mph - N/A   Overcast
2:55 AM 72.5 °F - 69.8 °F 91% 29.62 in 0.2 mi SSE 4.6 mph - N/A Rain Light Rain
3:15 AM 72.3 °F - 69.8 °F 92% 29.61 in 0.5 mi SSE 10.4 mph - N/A Rain Light Rain
3:35 AM 72.0 °F - 69.8 °F 93% 29.60 in 4.0 mi SSE 10.4 mph - N/A   Overcast
3:55 AM 72.3 °F - 69.6 °F 91% 29.60 in 5.0 mi SSE 12.7 mph - N/A   Overcast
4:15 AM 72.9 °F - 69.4 °F 89% 29.58 in 7.0 mi SSE 11.5 mph 18.4 mph N/A   Overcast
4:35 AM 73.4 °F - 69.4 °F 87% 29.58 in 5.0 mi SSE 10.4 mph - N/A   Overcast
4:55 AM 73.8 °F - 69.6 °F 87% 29.58 in 7.0 mi South 6.9 mph - N/A   Overcast
5:15 AM 73.9 °F - 69.8 °F 87% 29.57 in 7.0 mi SSE 12.7 mph 20.7 mph N/A   Overcast
5:35 AM 74.3 °F - 69.8 °F 86% 29.57 in 7.0 mi SSE 13.8 mph 18.4 mph N/A   Overcast
5:55 AM 74.7 °F - 69.8 °F 85% 29.59 in 7.0 mi South 9.2 mph - N/A   Overcast
6:15 AM 74.8 °F - 69.8 °F 84% 29.60 in 7.0 mi South 8.1 mph - N/A   Overcast
6:35 AM 75.2 °F - 69.8 °F 83% 29.61 in 7.0 mi South 6.9 mph - N/A   Overcast
6:55 AM 75.4 °F - 69.8 °F 83% 29.61 in 7.0 mi SSE 6.9 mph - N/A   Overcast
7:15 AM 75.6 °F - 69.8 °F 82% 29.62 in 7.0 mi SSE 3.5 mph - N/A   Overcast
7:35 AM 76.1 °F - 69.8 °F 81% 29.62 in 7.0 mi SE 4.6 mph - N/A   Overcast
7:55 AM 76.5 °F - 69.8 °F 80% 29.63 in 7.0 mi Calm Calm - N/A   Overcast
8:15 AM 77.2 °F - 69.8 °F 78% 29.64 in 5.0 mi SE 3.5 mph - N/A   Haze
8:35 AM 77.9 °F - 68.9 °F 74% 29.65 in 7.0 mi SSW 3.5 mph - N/A   Overcast
8:55 AM 78.6 °F - 68.9 °F 72% 29.65 in 5.0 mi Calm Calm - N/A   Haze
9:15 AM 79.7 °F - 69.3 °F 70% 29.67 in 7.0 mi South 3.5 mph - N/A   Overcast
9:35 AM 81.1 °F 84.4 °F 69.1 °F 67% 29.66 in 7.0 mi ESE 3.5 mph - N/A   Mostly Cloudy
9:55 AM 82.4 °F 85.8 °F 69.3 °F 64% 29.66 in 7.0 mi ENE 3.5 mph - N/A   Scattered Clouds
10:15 AM 82.4 °F 86.1 °F 69.4 °F 65% 29.66 in 7.0 mi North 3.5 mph - N/A   Clear
10:35 AM 84.0 °F 88.1 °F 69.8 °F 62% 29.67 in 7.0 mi North 6.9 mph - N/A   Clear
10:55 AM 84.7 °F 89.1 °F 69.8 °F 61% 29.67 in 7.0 mi North 8.1 mph - N/A   Clear
11:15 AM 85.5 °F 89.8 °F 69.6 °F 59% 29.67 in 7.0 mi North 8.1 mph - N/A   Clear
11:35 AM 87.1 °F 91.3 °F 69.1 °F 55% 29.68 in 7.0 mi North 9.2 mph - N/A   Clear
11:55 AM 87.6 °F 91.1 °F 68.0 °F 52% 29.67 in 7.0 mi North 11.5 mph 16.1 mph N/A   Clear
12:15 PM 89.2 °F 92.8 °F 67.8 °F 49% 29.67 in 10.0 mi NNW 9.2 mph 18.4 mph N/A   Clear
12:35 PM 89.6 °F 92.2 °F 66.2 °F 46% 29.67 in 10.0 mi NNW 12.7 mph 17.3 mph N/A   Clear
1:15 PM 91.9 °F 92.9 °F 63.3 °F 38% 29.68 in 7.0 mi North 13.8 mph 19.6 mph N/A   Clear
1:35 PM 91.8 °F 92.2 °F 61.7 °F 37% 29.67 in 7.0 mi NNW 10.4 mph 21.9 mph N/A   Clear
1:55 PM 93.2 °F 92.9 °F 59.7 °F 33% 29.67 in 7.0 mi North 12.7 mph 23.0 mph N/A   Clear
2:15 PM 93.7 °F 93.3 °F 60.1 °F 32% 29.67 in 7.0 mi North 11.5 mph 18.4 mph N/A   Clear
2:35 PM 95.5 °F 95.2 °F 59.4 °F 30% 29.67 in 7.0 mi North 10.4 mph 18.4 mph N/A   Clear
2:55 PM 96.8 °F 95.8 °F 57.4 °F 27% 29.66 in 7.0 mi NNE 10.4 mph 17.3 mph N/A   Clear
3:15 PM 97.7 °F 96.7 °F 57.2 °F 26% 29.65 in 10.0 mi NNE 8.1 mph - N/A   Clear
3:35 PM 98.2 °F 97.5 °F 57.4 °F 26% 29.64 in 10.0 mi NNE 10.4 mph - N/A   Clear
3:55 PM 98.6 °F 96.4 °F 54.1 °F 22% 29.64 in 7.0 mi North 11.5 mph 18.4 mph N/A   Clear
4:15 PM 99.1 °F 97.1 °F 53.4 °F 22% 29.64 in 5.0 mi NNE 11.5 mph 17.3 mph N/A   Haze
4:35 PM 93.7 °F 97.7 °F 67.5 °F 42% 29.64 in 7.0 mi ENE 12.7 mph 23.0 mph N/A   Clear
5:15 PM 91.8 °F 95.1 °F 66.7 °F 44% 29.66 in 10.0 mi East 16.1 mph 21.9 mph N/A   Clear
5:35 PM 90.0 °F 92.8 °F 66.4 °F 46% 29.67 in 10.0 mi East 18.4 mph 25.3 mph N/A   Clear
5:55 PM 88.2 °F 89.6 °F 64.4 °F 45% 29.69 in 10.0 mi ENE 20.7 mph 27.6 mph N/A   Clear
6:15 PM 87.1 °F 87.5 °F 62.1 °F 43% 29.69 in 10.0 mi ENE 19.6 mph 28.8 mph N/A   Clear
6:35 PM 85.5 °F 85.0 °F 59.4 °F 41% 29.70 in 10.0 mi ENE 13.8 mph 24.2 mph N/A   Clear
6:55 PM 84.6 °F 83.9 °F 57.6 °F 40% 29.72 in 10.0 mi ENE 13.8 mph 25.3 mph N/A   Clear
7:15 PM 83.5 °F 82.9 °F 57.2 °F 41% 29.72 in 10.0 mi ENE 16.1 mph 23.0 mph N/A   Clear
7:35 PM 82.4 °F 82.0 °F 57.4 °F 42% 29.74 in 10.0 mi ENE 17.3 mph 23.0 mph N/A   Clear
7:55 PM 81.1 °F 81.3 °F 57.7 °F 45% 29.75 in 10.0 mi ENE 11.5 mph 20.7 mph N/A   Clear
8:15 PM 79.7 °F - 58.1 °F 47% 29.77 in 10.0 mi ENE 13.8 mph 20.7 mph N/A   Clear
8:35 PM 78.6 °F - 55.8 °F 45% 29.78 in 10.0 mi ENE 11.5 mph 18.4 mph N/A   Clear
9:35 PM 76.3 °F - 54.3 °F 46% 29.82 in 10.0 mi ENE 9.2 mph - N/A   Clear
9:55 PM 76.1 °F - 53.6 °F 45% 29.83 in 10.0 mi ENE 9.2 mph - N/A   Clear
10:15 PM 75.2 °F - 53.8 °F 47% 29.84 in 10.0 mi NE 6.9 mph - N/A   Clear
10:35 PM 73.9 °F - 53.8 °F 49% 29.85 in 10.0 mi ENE 5.8 mph - N/A   Clear
10:55 PM 73.4 °F - 53.8 °F 50% 29.86 in 10.0 mi NE 5.8 mph - N/A   Clear
11:15 PM 72.5 °F - 53.4 °F 51% 29.87 in 10.0 mi NE 5.8 mph - N/A   Clear
11:35 PM 72.3 °F - 52.7 °F 50% 29.88 in 10.0 mi NE 4.6 mph - N/A   Clear
11:55 PM 70.7 °F - 52.9 °F 53% 29.89 in 10.0 mi NE 3.5 mph - N/A   Clear